Weather History for CYXX - September, 2013

Change the Weather History Date:

Monday, September 23, 2013

  Actual Average Record
Temperature  
Mean Temperature 54 °F -  
Max Temperature 59 °F 61 °F 80 °F (1997)
Min Temperature 48 °F 42 °F 37 °F (2000)
Degree Days  
Heating Degree Days 11    
Growing Degree Days 4 (Base 50)    
Moisture  
Dew Point 50 °F    
Average Humidity 87    
Maximum Humidity 100    
Minimum Humidity 57    
Precipitation  
Precipitation 0.20 in 0.18 in - ()
Sea Level Pressure  
Sea Level Pressure 29.84 in    
Wind  
Wind Speed 7 mph ()    
Max Wind Speed 14 mph    
Max Gust Speed 21 mph    
Visibility 13.1 miles    
Events Rain    
Averages and records for this station are not official NWS values.
T = Trace of Precipitation, MM = Missing Value Source: Averaged Metar Reports

Daily Weather History Graph

Daily Weather History Graph

Search for Another Location

Airport or City:

Trip Planner

Search our weather history database for the weather conditions in past years. The results will help you decide how hot, cold, wet, or windy it might be!

Date:

Astronomy

Sep. 23, 2013 Rise Set
Actual Time 6:58 AM PDT 7:04 PM PDT
Civil Twilight 6:26 AM PDT 7:36 PM PDT
Nautical Twilight 5:49 AM PDT 8:13 PM PDT
Astronomical Twilight 5:10 AM PDT 8:51 PM PDT
Moon 9:15 PM PDT (9/23) 11:46 AM PDT (9/23)
Length of Visible Light 13h 09m
Length of Day
12h 06m
Waning Gibbous, 80% of the Moon is Illuminated
Sep 23
Waning Gibbous
Sep 26
Last Quarter
Oct 4
New
Oct 11
First Quarter
Oct 18
Full

Hourly Weather History & Observations

Time (PDT) Temp. Dew Point Humidity Pressure Visibility Wind Dir Wind Speed Gust Speed Precip Events Conditions
12:00 AM 53.6 °F 53.6 °F 100% 29.68 in 10.0 mi South 8.1 mph - N/A   Scattered Clouds
1:00 AM 53.6 °F 51.8 °F 94% 29.71 in 10.0 mi South 6.9 mph - N/A   Scattered Clouds
2:00 AM 55.4 °F 51.8 °F 88% 29.72 in 10.0 mi South 9.2 mph - N/A   Mostly Cloudy
3:00 AM 53.6 °F 51.8 °F 94% 29.73 in 10.0 mi South 6.9 mph - N/A   Mostly Cloudy
4:00 AM 53.6 °F 51.8 °F 94% 29.75 in 7.0 mi South 8.1 mph - N/A   Mostly Cloudy
4:40 AM 53.6 °F 51.8 °F 94% 29.75 in 7.0 mi South 5.8 mph - N/A Rain Light Rain Showers
5:00 AM 53 °F 52 °F 95% 29.75 in 7 mi SSW 4.6 mph - - Rain Light Rain Showers
5:00 AM 53.6 °F 51.8 °F 94% 29.75 in 7.0 mi SW 4.6 mph - N/A Rain Light Rain Showers
6:00 AM 53.6 °F 51.8 °F 94% 29.77 in 7.0 mi SSW 10.4 mph - N/A Rain Light Rain Showers
6:41 AM 53.6 °F 51.8 °F 94% 29.78 in 15.0 mi South 8.1 mph - N/A   Overcast
7:00 AM 51.8 °F 51.8 °F 100% 29.78 in 20.0 mi South 6.9 mph - N/A   Mostly Cloudy
8:00 AM 53.6 °F 51.8 °F 94% 29.81 in 15.0 mi Calm Calm - N/A   Mostly Cloudy
8:26 AM 53.6 °F 51.8 °F 94% 29.81 in 15.0 mi South 8.1 mph - N/A Rain Light Rain
9:00 AM 53.6 °F 51.8 °F 94% 29.83 in 10.0 mi SSW 9.2 mph - N/A Rain Light Rain
10:00 AM 53.6 °F 53.6 °F 100% 29.84 in 10.0 mi South 6.9 mph - N/A Rain Light Rain
10:31 AM 53.6 °F 53.6 °F 100% 29.86 in 6.0 mi SW 9.2 mph - N/A Rain Light Rain
11:00 AM 54 °F 53 °F 93% 29.87 in 10 mi SW 12.7 mph - - Rain Light Rain
11:00 AM 53.6 °F 51.8 °F 94% 29.87 in 10.0 mi SSW 12.7 mph - N/A Rain Light Rain
12:00 PM 55.4 °F 51.8 °F 88% 29.86 in 15.0 mi SSW 12.7 mph - N/A   Mostly Cloudy
1:00 PM 57.2 °F 51.8 °F 82% 29.89 in 20.0 mi SSW 10.4 mph - N/A   Overcast
1:44 PM 57.2 °F 51.8 °F 82% 29.89 in 15.0 mi SSW 10.4 mph - N/A Rain Light Rain Showers
2:00 PM 59.0 °F 53.6 °F 82% 29.89 in 15.0 mi South 10.4 mph - N/A Rain Light Rain Showers
3:00 PM 59.0 °F 50.0 °F 72% 29.90 in 20.0 mi South 13.8 mph 20.7 mph N/A   Mostly Cloudy
4:00 PM 57.2 °F 46.4 °F 67% 29.91 in 20.0 mi South 12.7 mph - N/A   Mostly Cloudy
5:00 PM 59 °F 48 °F 57% 29.92 in 19 mi South 13.8 mph - -   Partly Cloudy
5:00 PM 59.0 °F 48.2 °F 67% 29.91 in 20.0 mi South 12.7 mph 18.4 mph N/A   Mostly Cloudy
6:00 PM 57.2 °F 48.2 °F 72% 29.91 in 30.0 mi South 6.9 mph - N/A   Mostly Cloudy
7:00 PM 53.6 °F 46.4 °F 77% 29.92 in 30.0 mi SSE 4.6 mph - N/A   Mostly Cloudy
8:00 PM 53.6 °F 46.4 °F 77% 29.94 in 15.0 mi SSW 2.3 mph - N/A   Mostly Cloudy
9:00 PM 50.0 °F 44.6 °F 82% 29.94 in 15.0 mi SW 5.8 mph - N/A   Mostly Cloudy
10:00 PM 50.0 °F 46.4 °F 87% 29.95 in 15.0 mi Calm Calm - N/A   Scattered Clouds
11:00 PM 49 °F 45 °F 82% 29.96 in 15 mi SW 5.8 mph - -   Partly Cloudy
11:00 PM 48.2 °F 44.6 °F 87% 29.96 in 15.0 mi SW 5.8 mph - N/A   Scattered Clouds